VOLGA R/B

基本信息
目录编号:
68756
目录名称:
VOLGA R/B
国际标识:
2026-083D
轨道中心:
EARTH
物体状态:
在轨
发射日期:
2026-04-16 UTC
国别:
俄罗斯(独联体) (CIS)
轨道信息
数据来源: 国际轨道数据
星历时间: 2026-06-24T10:22:18+0800
半长轴: 6846.832km
偏心率: 0.0015269
轨道倾角: 96.913°
近地点辐角: 34.472°
升交点赤经: 311.712°
平近点角: 325.751°
近地点: 458.24km
远地点: 479.15km
周期: 93.971分钟
每日圈数: 15.323866
详细信息
发射场:
PKMTR
轨道高度:
LEO
数据来源:
AOE Working Group
参考系:
TEME
时间系统:
UTC
历元类型:
SGP4
2D轨道图
3D轨道图
轨道高度分析图
轨道倾角分析图
轨道综合分析图
查看轨道综合分析图